www.pogodaiklimat.ru

Погода и климат >> Архив погоды >> Сенегал >> Kedougou


ПОГОДА в Kedougou

  • Прогноз погоды в Kedougou
  • Монитор погоды в Kedougou
  • Климат города

АРХИВ ПОГОДЫ в Kedougou

Время (UTC), дата Ветер
(напр.,м/с)
 
Видим.   Явления Облачность Т
(С)
Тd
(С)
f
(%)
Тe
(С)
Тes
(С)
Комфортность P
(гПа)
Po
(гПа)
Тmin
(С)
Tmax
(С)
R
(мм)
R24
(мм)
S
(см)
03 19.06 З 3 10 км 4/0
[Ci sp]
+27.0 +19.4 63 +33 +33 очень
душно
1012.0 993.3
06 19.06 Ю 3 10 км 8/6 450 м
[Sc Ci sp]
+27.2 +19.5 63 +33 +33 очень
душно
1014.3 995.6 +25.8
09 19.06 штиль 0 10 км 4/0
[Ci fib]
+28.2 +20.9 65 +35 +44 очень
душно
1015.7 996.9
12 19.06 ЮЗ 2 10 км 8/0
[Ci sp]
+32.5 +20.3 49 +39 +58 опасность
солнечного
удара
1012.5 993.9
15 19.06 ЮЗ 2 10 км 6/0
[Ci sp]
+35.8 +18.4 36 +40 +54 опасность
солнечного
удара
1009.9 991.4
18 19.06 З 2 10 км 9/0
[Ac As Ci sp]
+34.7 +18.3 38 +39 +40 очень
душно
1008.1 989.6 +36.2
09 20.06 З 3 10 км ясно +29.0 +22.5 68 +38 +44 очень
душно
1012.2 993.5
12 20.06 З 3 10 км 3/3 400 м
[Cu hum]
+33.5 +22.1 51 +42 +54 опасность
перегрева
1011.1 992.6
15 20.06 З 2 10 км 8/3 400 м
[Cu hum Ci sp]
+36.5 +20.4 39 +43 +52 опасность
перегрева
1009.1 990.7
18 20.06 З 2 10 км 9/0
[Ci sp]
+35.5 +22.7 48 +45 +47 опасность
перегрева
1009.2 990.7 +37.2
03 21.06 СЗ 3 10 км 6/0
[Ci sp]
+29.0 +22.5 68 +38 +38 очень
душно
1011.2 992.7
06 21.06 СЗ 5 10 км 9/0
[Ci sp]
+27.0 +21.1 70 +34 +34 очень
душно
1011.6 993.0 +26.0
09 21.06 З 4 10 км 10/8 480 м
[Cu med, cong Ci sp]
+27.5 +21.6 70 +35 +36 очень
душно
1013.4 994.8
12 21.06 З 2 10 км 9/8 450 м
[Sc Ci sp]
+29.6 +22.1 64 +38 +42 очень
душно
1013.9 995.2
15 21.06 ЮЗ 2 10 км 9/6 450 м
[Sc Ci sp]
+32.2 +21.8 54 +41 +46 опасность
перегрева
1012.1 993.5
18 21.06 ЮЗ 2 10 км 8/0
[Ac trans Ci sp]
+32.6 +22.9 57 +43 +44 опасность
перегрева
1010.2 991.6 +33.0
03 22.06 З 4 10 км 8/0
[Ci sp]
+28.0 +22.9 74 +37 +37 очень
душно
1009.6 991.0
06 22.06 З 4 10 км 6/0
[Ci sp]
+27.0 +20.2 66 +33 +33 очень
душно
1010.8 992.2 +26.1
09 22.06 З 4 10 км 10/6 450 м
[Sc Ci sp]
+28.0 +22.2 71 +37 +38 очень
душно
1012.4 993.7
12 22.06 ЮЗ 4 10 км 9/5 480 м
[Cu med, cong Ci sp]
+31.0 +22.3 60 +40 +46 очень
душно
1012.8 994.2
15 22.06 З 2 10 км 9/4 450 м
[Sc Ci sp]
+34.5 +23.2 52 +45 +53 опасность
перегрева
1009.3 990.8
18 22.06 З 2 10 км 10/3 450 м
[Sc Ci sp]
+33.5 +22.5 53 +43 +44 опасность
перегрева
1009.5 991.0 +35.5
03 23.06 З 2 10 км 8/0
[Ci sp]
+28.8 +20.6 61 +36 +36 очень
душно
1008.6 990.2
06 23.06 З 3 10 км 9/0
[Ci sp]
+27.5 +22.4 74 +36 +36 очень
душно
1010.4 991.8 +27.0
09 23.06 З 1 10 км 9/4 450 м
[Sc Ci sp]
+30.0 +22.8 65 +40 +44 очень
душно
1013.2 994.5
12 23.06 З 1 10 км 9/9 450 м
[Sc]
+33.0 +23.0 56 +43 +46 опасность
перегрева
1013.7 995.2
15 23.06 З 1 10 км 5/1 450 м
[Sc Ci sp]
+36.0 +23.3 48 +46 +61 опасность
перегрева
1009.2 990.7
18 23.06 Ю 1 10 км 5/3 450 м
[Cu med, cong Ci sp]
+36.5 +23.1 46 +46 +48 опасность
перегрева
1008.3 989.9 +37.5
03 24.06 З 2 10 км 4/0
[Ci fib]
+29.0 +23.3 71 +39 +39 очень
душно
1010.5 992.0
06 24.06 З 4 10 км 8/0
[Ac trans Ci sp]
+27.5 +22.7 75 +36 +36 очень
душно
1009.9 991.5 +27.0
09 24.06 ЮЗ 4 10 км 9/4 450 м
[Cu med, cong Ac trans Ci sp]
+29.0 +23.3 71 +39 +41 очень
душно
1012.1 993.5
12 24.06 З 3 10 км 9/6 450 м
[Cu Sc Ci sp]
+32.0 +22.9 59 +42 +48 опасность
перегрева
1012.2 993.6
15 24.06 ЮЗ 4 10 км 9/4 450 м
[Cu Sc Ci sp]
+34.0 +23.2 53 +44 +49 опасность
перегрева
1009.4 991.0
18 24.06 ЮЗ 2 10 км 10/0
[As op]
+32.5 +24.1 61 +44 +45 опасность
перегрева
1009.1 990.5 +34.0
03 25.06 З 3 10 км 8/3 480 м
[Sc Ac trans]
+28.0 +23.0 74 +37 +37 очень
душно
1008.5 989.9
06 25.06 ЮЗ 4 10 км 9/3 480 м
[Sc Ac As]
+27.0 +21.9 74 +35 +35 очень
душно
1008.0 989.4 +26.2
09 25.06 ЮЗ 2 10 км 10/8 480 м
[Sc Ac As]
+28.5 +23.5 74 +39 +39 очень
душно
1011.3 992.6
12 25.06 З 2 10 км 9/6 450 м
[Cu med, cong Ci sp]
+31.5 +23.7 63 +43 +50 опасность
перегрева
1008.9 990.3
15 25.06 штиль 0 8000 м гроза, ливневой дождь 9/0 900 м
[Ac As]
+24.0 +23.3 96 +32 +39 очень
душно
1009.0 990.2
18 25.06 З 1 10 км {гроза, дождь} 9/0
[Ac As Ci sp]
+25.0 +22.8 88 +33 +34 очень
душно
1007.2 988.4 +33.0 10

 

Местоположение метеостанции Kedougou (Сенегал): широта 12.57 долгота -12.21 высота над уровнем моря 167 м.

В архиве по умолчанию представлена погода в Kedougou за последнюю неделю. Архивные данные за месяц целиком и за предыдущие месяцы, начиная с января 2011 года, Вы можете получить, выбрав интересующий диапазон дат из раскрывающегося списка и нажав кнопку "Ввод!".


*Определитесь, кто Вы:
робот инопланетянин человек

Внимание! Время в таблицах - всемирное. Для получения местного времени необходимо прибавить поправку, которая в Kedougou равна 0 ч.

Смотрите также архив погоды в соседних городах и на ближайших метеорологических станциях:

Погода в Kenieba (Мали) (111 км)
Погода в Koundara (Гвинея) (141 км)
Погода в Fatoto (Гамбия) (195 км)
Погода в Tambacounda (Сенегал) (208 км)
Погода в Kayes (Мали) (223 км)
Погода в Basse (Гамбия) (230 км)
Погода в Bafata (Гвинея-Биссау) (271 км)
Погода в Kindia (Гвинея) (289 км)
Погода в Georgetown (Гамбия) (297 км)
Погода в Kolda (Сенегал) (300 км)

Пояснения к столбцам:

Ветер - указаны скорость ветра в м/с - средняя за 10 мин, порывы в срок и между сроками (в фигурных скобках) и направление, откуда дует ветер: С - северный, СВ - северо-восточный, В - восточный, ЮВ - юго-восточный, Ю - южный, ЮЗ - юго-западный, З - западный, СЗ - северо-западный.
Видимость - горизонтальная дальность видимости в метрах или километрах. При видимости от 1 до 10 км при отсутствии осадков обычно наблюдается дымка, при ухудшении видимости до 1 км и менее - туман. В сухую погоду видимость может ухудшаться дымом, пылью или мглою.
Явления - указаны атмосферные явления, наблюдавшиеся в срок или в последний час перед сроком; фигурными скобками обозначены явления, наблюдавшиеся между сроками (за 1-3 часа до срока); квадратными скобками обозначены град или гололедные отложения с указанием их диаметра в мм.
Облачность - указаны через наклонную черту общая и нижняя облачность в баллах и высота нижней границы облаков в метрах; квадратными скобками обозначены формы облаков: Ci - перистые, Cs - перисто-слоистые, Cc - перисто-кучевые, Ac - высококучевые, As - высокослоистые, Sc - слоисто-кучевые, Ns - слоисто-дождевые, Cu - кучевые, Cb - кучево-дождевые. Подробнее классификацию облаков см. в Атласе облаков (PDF).
T - Температура воздуха - температура, измеренная на высоте 2 м над землей.
Td - Температура точки росы - температура, при понижении до которой содержащийся в воздухе водяной пар достигнет насыщения.
f - Относительная влажность воздуха - влажноcть воздуха, измеренная на высоте 2 м над землей.
Te - Эффективная температура - температура, которую ощущает одетый по сезону человек в тени. Характеристика душности погоды. При расчете учитывается влияние влажности воздуха и скорости ветра на теплоощущения человека.
Tes - Эффективная температура на солнце - температура, которую ощущает человек, с поправкой на солнечный нагрев. Характеристика знойности погоды. Зависит от высоты солнца над горизонтом, облачности и скорости ветра. Ночью, в пасмурную погоду, а также при ветре 12 м/с и более поправка равна нулю.
P - Атмосферное давление - приведенное к уровню моря атмосферное давление.
Po - Атмосферное давление - измеренное на уровне метеостанции атмосферное давление.
Tmin - Минимальная температура - минимум температуры воздуха на высоте 2 м над землей.
Tmax - Максимальная температура - максимум температуры воздуха на высоте 2 м над землей.
R - Количество осадков - Количество выпавших осадков за период времени, мм. При наведении курсора мыши на число - период времени, за который выпало указанное количество осадков.
R24 - Количество осадков - Количество выпавших осадков за 24 часа, мм.
S - Снежный покров - Высота снежного покрова, см. При наведении курсора мыши на число - состояние снежного покрова и степень покрытия местности в баллах.